owner,sensor,date,latitude,longitude,vertical_datum,sea_water_practical_salinity,qcFlag 
DISL,ioos:station:DISL:BSCA:1,2011-01-01T00:00:00Z,30.3288,-87.8293,0.6,22.7,11111222 
DISL,ioos:station:DISL:BSCA:1,2011-01-01T00:30:00Z,30.3288,-87.8293,0.6,22.6,11111222 
DISL,ioos:station:DISL:BSCA:1,2011-01-01T01:00:00Z,30.3288,-87.8293,0.6,22.6,11111222 
DISL,ioos:station:DISL:BSCA:1,2011-01-01T01:30:00Z,30.3288,-87.8293,0.7,22.6,11111222 
DISL,ioos:station:DISL:BSCA:1,2011-01-01T02:00:00Z,30.3288,-87.8293,0.7,22.5,11111222 
DISL,ioos:station:DISL:BSCA:1,2011-01-01T02:30:00Z,30.3288,-87.8293,0.7,22.4,11111222 
DISL,ioos:station:DISL:BSCA:1,2011-01-01T03:00:00Z,30.3288,-87.8293,0.7,22.3,11111222 
DISL,ioos:station:DISL:BSCA:1,2011-01-01T03:30:00Z,30.3288,-87.8293,0.7,22.2,11111222 
DISL,ioos:station:DISL:BSCA:1,2011-01-01T04:00:00Z,30.3288,-87.8293,0.7,22.1,11111222 
DISL,ioos:station:DISL:BSCA:1,2011-01-01T04:30:00Z,30.3288,-87.8293,0.7,22.1,11111222 
DISL,ioos:station:DISL:BSCA:1,2011-01-01T05:00:00Z,30.3288,-87.8293,0.6,22.1,11111222 
DISL,ioos:station:DISL:BSCA:1,2011-01-01T05:30:00Z,30.3288,-87.8293,0.6,22.3,11111222 
DISL,ioos:station:DISL:BSCA:1,2011-01-01T06:00:00Z,30.3288,-87.8293,0.6,22.4,11111222 
DISL,ioos:station:DISL:BSCA:1,2011-01-01T06:30:00Z,30.3288,-87.8293,1.957,22.18,1111122 
DISL,ioos:station:DISL:BSCA:1,2011-01-01T07:00:00Z,30.3288,-87.8293,1.902,22.02,1111122 
DISL,ioos:station:DISL:BSCA:1,2011-01-01T07:30:00Z,30.3288,-87.8293,1.86,22.02,1111122 
DISL,ioos:station:DISL:BSCA:1,2011-01-01T08:00:00Z,30.3288,-87.8293,1.816,22.01,1111122 
DISL,ioos:station:DISL:BSCA:1,2011-01-01T08:30:00Z,30.3288,-87.8293,1.787,22.04,1111122 
DISL,ioos:station:DISL:BSCA:1,2011-01-01T09:00:00Z,30.3288,-87.8293,1.756,22.1,1111122 
DISL,ioos:station:DISL:BSCA:1,2011-01-01T09:30:00Z,30.3288,-87.8293,1.743,22.08,1111122 
DISL,ioos:station:DISL:BSCA:1,2011-01-01T10:00:00Z,30.3288,-87.8293,1.72,22.07,1111122 
DISL,ioos:station:DISL:BSCA:1,2011-01-01T10:30:00Z,30.3288,-87.8293,1.7,22.07,1111122 
DISL,ioos:station:DISL:BSCA:1,2011-01-01T11:00:00Z,30.3288,-87.8293,1.672,22.1,1111122 
DISL,ioos:station:DISL:BSCA:1,2011-01-01T11:30:00Z,30.3288,-87.8293,1.65,22.01,1111122 
DISL,ioos:station:DISL:BSCA:1,2011-01-01T12:00:00Z,30.3288,-87.8293,1.606,22.03,1111122 
DISL,ioos:station:DISL:BSCA:1,2011-01-01T12:30:00Z,30.3288,-87.8293,1.605,22.04,1111122 
DISL,ioos:station:DISL:BSCA:1,2011-01-01T13:00:00Z,30.3288,-87.8293,1.557,22.04,1111122 
DISL,ioos:station:DISL:BSCA:1,2011-01-01T13:30:00Z,30.3288,-87.8293,1.553,22.02,1111122 
DISL,ioos:station:DISL:BSCA:1,2011-01-01T14:00:00Z,30.3288,-87.8293,1.528,22.0,1111122 
DISL,ioos:station:DISL:BSCA:1,2011-01-01T14:30:00Z,30.3288,-87.8293,1.552,22.0,1111122 
DISL,ioos:station:DISL:BSCA:1,2011-01-01T15:00:00Z,30.3288,-87.8293,1.564,21.97,1111122 
DISL,ioos:station:DISL:BSCA:1,2011-01-01T15:30:00Z,30.3288,-87.8293,1.601,21.92,1111122 
DISL,ioos:station:DISL:BSCA:1,2011-01-01T16:00:00Z,30.3288,-87.8293,1.641,22.2,1111122 
DISL,ioos:station:DISL:BSCA:1,2011-01-01T16:30:00Z,30.3288,-87.8293,1.666,21.94,1111122 
DISL,ioos:station:DISL:BSCA:1,2011-01-01T17:00:00Z,30.3288,-87.8293,1.693,21.87,1111122 
DISL,ioos:station:DISL:BSCA:1,2011-01-01T17:30:00Z,30.3288,-87.8293,1.696,21.89,1111122 
DISL,ioos:station:DISL:BSCA:1,2011-01-01T18:00:00Z,30.3288,-87.8293,1.717,22.08,1111122 
DISL,ioos:station:DISL:BSCA:1,2011-01-01T18:30:00Z,30.3288,-87.8293,1.736,22.09,1111122 
DISL,ioos:station:DISL:BSCA:1,2011-01-01T19:00:00Z,30.3288,-87.8293,1.781,21.86,1111122 
DISL,ioos:station:DISL:BSCA:1,2011-01-01T19:30:00Z,30.3288,-87.8293,1.794,21.8,1111122 
DISL,ioos:station:DISL:BSCA:1,2011-01-01T20:00:00Z,30.3288,-87.8293,1.858,21.57,1111122 
DISL,ioos:station:DISL:BSCA:1,2011-01-01T20:30:00Z,30.3288,-87.8293,1.876,21.43,1111122 
DISL,ioos:station:DISL:BSCA:1,2011-01-01T21:00:00Z,30.3288,-87.8293,1.935,21.68,1111122 
DISL,ioos:station:DISL:BSCA:1,2011-01-01T21:30:00Z,30.3288,-87.8293,1.956,21.53,1111122 
DISL,ioos:station:DISL:BSCA:1,2011-01-01T22:00:00Z,30.3288,-87.8293,1.978,21.67,1111122 
DISL,ioos:station:DISL:BSCA:1,2011-01-01T22:30:00Z,30.3288,-87.8293,2.004,21.69,1111122 
DISL,ioos:station:DISL:BSCA:1,2011-01-01T23:00:00Z,30.3288,-87.8293,1.998,21.6,1111122 
DISL,ioos:station:DISL:BSCA:1,2011-01-01T23:30:00Z,30.3288,-87.8293,2.027,21.7,1111122 
DISL,ioos:station:DISL:BSCA:1,2011-01-02T00:00:00Z,30.3288,-87.8293,2.038,21.69,1111122 
DISL,ioos:station:DISL:BSCA:1,2011-01-02T00:30:00Z,30.3288,-87.8293,2.028,21.64,1111122 
DISL,ioos:station:DISL:BSCA:1,2011-01-02T01:00:00Z,30.3288,-87.8293,1.978,21.62,1111122 
DISL,ioos:station:DISL:BSCA:1,2011-01-02T01:30:00Z,30.3288,-87.8293,1.963,21.79,1111122 
DISL,ioos:station:DISL:BSCA:1,2011-01-02T02:00:00Z,30.3288,-87.8293,1.969,21.88,1111122 
DISL,ioos:station:DISL:BSCA:1,2011-01-02T02:30:00Z,30.3288,-87.8293,1.953,21.9,1111122 
DISL,ioos:station:DISL:BSCA:1,2011-01-02T03:00:00Z,30.3288,-87.8293,1.966,21.96,1111122 
DISL,ioos:station:DISL:BSCA:1,2011-01-02T03:30:00Z,30.3288,-87.8293,1.973,22.01,1111122 
DISL,ioos:station:DISL:BSCA:1,2011-01-02T04:00:00Z,30.3288,-87.8293,1.96,21.99,1111122 
DISL,ioos:station:DISL:BSCA:1,2011-01-02T04:30:00Z,30.3288,-87.8293,1.94,22.0,1111122 
DISL,ioos:station:DISL:BSCA:1,2011-01-02T05:00:00Z,30.3288,-87.8293,1.897,21.77,1111122 
DISL,ioos:station:DISL:BSCA:1,2011-01-02T05:30:00Z,30.3288,-87.8293,1.861,21.8,1111122 
DISL,ioos:station:DISL:BSCA:1,2011-01-02T06:00:00Z,30.3288,-87.8293,1.821,21.92,1111122 
DISL,ioos:station:DISL:BSCA:1,2011-01-02T06:30:00Z,30.3288,-87.8293,1.779,21.89,1111122 
DISL,ioos:station:DISL:BSCA:1,2011-01-02T07:00:00Z,30.3288,-87.8293,1.762,21.95,1111122 
DISL,ioos:station:DISL:BSCA:1,2011-01-02T07:30:00Z,30.3288,-87.8293,1.737,21.93,1111122 
DISL,ioos:station:DISL:BSCA:1,2011-01-02T08:00:00Z,30.3288,-87.8293,1.715,21.96,1111122 
DISL,ioos:station:DISL:BSCA:1,2011-01-02T08:30:00Z,30.3288,-87.8293,1.691,22.04,1111122 
DISL,ioos:station:DISL:BSCA:1,2011-01-02T09:00:00Z,30.3288,-87.8293,1.64,22.14,1111122 
DISL,ioos:station:DISL:BSCA:1,2011-01-02T09:30:00Z,30.3288,-87.8293,1.598,22.16,1111122 
DISL,ioos:station:DISL:BSCA:1,2011-01-02T10:00:00Z,30.3288,-87.8293,1.557,22.13,1111122 
DISL,ioos:station:DISL:BSCA:1,2011-01-02T10:30:00Z,30.3288,-87.8293,1.511,22.21,1111122 
DISL,ioos:station:DISL:BSCA:1,2011-01-02T11:00:00Z,30.3288,-87.8293,1.491,22.18,1111122 
DISL,ioos:station:DISL:BSCA:1,2011-01-02T11:30:00Z,30.3288,-87.8293,1.48,22.31,1111122 
DISL,ioos:station:DISL:BSCA:1,2011-01-02T12:00:00Z,30.3288,-87.8293,1.464,22.35,1111122 
DISL,ioos:station:DISL:BSCA:1,2011-01-02T12:30:00Z,30.3288,-87.8293,1.474,22.07,1111122 
DISL,ioos:station:DISL:BSCA:1,2011-01-02T13:00:00Z,30.3288,-87.8293,1.435,22.08,1111122 
DISL,ioos:station:DISL:BSCA:1,2011-01-02T13:30:00Z,30.3288,-87.8293,1.437,22.09,1111122 
DISL,ioos:station:DISL:BSCA:1,2011-01-02T14:00:00Z,30.3288,-87.8293,1.397,22.14,1111122 
DISL,ioos:station:DISL:BSCA:1,2011-01-02T14:30:00Z,30.3288,-87.8293,1.395,22.16,1111122 
DISL,ioos:station:DISL:BSCA:1,2011-01-02T15:00:00Z,30.3288,-87.8293,1.399,22.14,1111122 
DISL,ioos:station:DISL:BSCA:1,2011-01-02T15:30:00Z,30.3288,-87.8293,1.392,22.04,1111122 
DISL,ioos:station:DISL:BSCA:1,2011-01-02T16:00:00Z,30.3288,-87.8293,1.399,21.99,1111122 
DISL,ioos:station:DISL:BSCA:1,2011-01-02T16:30:00Z,30.3288,-87.8293,1.417,21.96,1111122 
DISL,ioos:station:DISL:BSCA:1,2011-01-02T17:00:00Z,30.3288,-87.8293,1.4,22.04,1111122 
DISL,ioos:station:DISL:BSCA:1,2011-01-02T17:30:00Z,30.3288,-87.8293,1.408,22.12,1111122 
DISL,ioos:station:DISL:BSCA:1,2011-01-02T18:00:00Z,30.3288,-87.8293,1.437,22.14,1111122 
DISL,ioos:station:DISL:BSCA:1,2011-01-02T18:30:00Z,30.3288,-87.8293,1.45,22.2,1111122 
DISL,ioos:station:DISL:BSCA:1,2011-01-02T19:00:00Z,30.3288,-87.8293,1.48,22.31,1111122 
DISL,ioos:station:DISL:BSCA:1,2011-01-02T19:30:00Z,30.3288,-87.8293,1.517,22.37,1111122 
DISL,ioos:station:DISL:BSCA:1,2011-01-02T20:00:00Z,30.3288,-87.8293,1.554,22.44,1111122 
DISL,ioos:station:DISL:BSCA:1,2011-01-02T20:30:00Z,30.3288,-87.8293,1.584,22.52,1111122 
DISL,ioos:station:DISL:BSCA:1,2011-01-02T21:00:00Z,30.3288,-87.8293,1.603,22.62,1111122 
DISL,ioos:station:DISL:BSCA:1,2011-01-02T21:30:00Z,30.3288,-87.8293,1.643,22.75,1111122 
DISL,ioos:station:DISL:BSCA:1,2011-01-02T22:00:00Z,30.3288,-87.8293,1.661,22.86,1111122 
DISL,ioos:station:DISL:BSCA:1,2011-01-02T22:30:00Z,30.3288,-87.8293,1.707,22.93,1111122 
DISL,ioos:station:DISL:BSCA:1,2011-01-02T23:00:00Z,30.3288,-87.8293,1.732,22.92,1111122 
DISL,ioos:station:DISL:BSCA:1,2011-01-02T23:30:00Z,30.3288,-87.8293,1.773,23.09,1111122 
DISL,ioos:station:DISL:BSCA:1,2011-01-03T00:00:00Z,30.3288,-87.8293,1.806,23.17,1111122 
DISL,ioos:station:DISL:BSCA:1,2011-01-03T00:30:00Z,30.3288,-87.8293,1.83,23.19,1111122 
DISL,ioos:station:DISL:BSCA:1,2011-01-03T01:00:00Z,30.3288,-87.8293,1.864,23.36,1111122 
DISL,ioos:station:DISL:BSCA:1,2011-01-03T01:30:00Z,30.3288,-87.8293,1.873,23.44,1111122 
DISL,ioos:station:DISL:BSCA:1,2011-01-03T02:00:00Z,30.3288,-87.8293,1.891,23.46,1111122 
DISL,ioos:station:DISL:BSCA:1,2011-01-03T02:30:00Z,30.3288,-87.8293,1.896,23.44,1111122 
DISL,ioos:station:DISL:BSCA:1,2011-01-03T03:00:00Z,30.3288,-87.8293,1.909,23.15,1111122 
DISL,ioos:station:DISL:BSCA:1,2011-01-03T03:30:00Z,30.3288,-87.8293,1.914,23.38,1111122 
DISL,ioos:station:DISL:BSCA:1,2011-01-03T04:00:00Z,30.3288,-87.8293,1.913,23.49,1111122 
DISL,ioos:station:DISL:BSCA:1,2011-01-03T04:30:00Z,30.3288,-87.8293,1.908,23.46,1111122 
DISL,ioos:station:DISL:BSCA:1,2011-01-03T05:00:00Z,30.3288,-87.8293,1.882,23.33,1111122 
DISL,ioos:station:DISL:BSCA:1,2011-01-03T05:30:00Z,30.3288,-87.8293,1.852,23.41,1111122 
DISL,ioos:station:DISL:BSCA:1,2011-01-03T06:00:00Z,30.3288,-87.8293,1.811,23.25,1111122 
DISL,ioos:station:DISL:BSCA:1,2011-01-03T06:30:00Z,30.3288,-87.8293,1.767,23.2,1111122 
DISL,ioos:station:DISL:BSCA:1,2011-01-03T07:00:00Z,30.3288,-87.8293,1.724,23.07,1111122 
DISL,ioos:station:DISL:BSCA:1,2011-01-03T07:30:00Z,30.3288,-87.8293,1.695,23.04,1111122 
DISL,ioos:station:DISL:BSCA:1,2011-01-03T08:00:00Z,30.3288,-87.8293,1.65,23.0,1111122 
DISL,ioos:station:DISL:BSCA:1,2011-01-03T08:30:00Z,30.3288,-87.8293,1.603,23.0,1111122 
DISL,ioos:station:DISL:BSCA:1,2011-01-03T09:00:00Z,30.3288,-87.8293,1.569,22.99,1111122 
DISL,ioos:station:DISL:BSCA:1,2011-01-03T09:30:00Z,30.3288,-87.8293,1.524,23.01,1111122 
DISL,ioos:station:DISL:BSCA:1,2011-01-03T10:00:00Z,30.3288,-87.8293,1.494,23.08,1111122 
DISL,ioos:station:DISL:BSCA:1,2011-01-03T10:30:00Z,30.3288,-87.8293,1.442,23.12,1111122 
DISL,ioos:station:DISL:BSCA:1,2011-01-03T11:00:00Z,30.3288,-87.8293,1.412,23.15,1111122 
DISL,ioos:station:DISL:BSCA:1,2011-01-03T11:30:00Z,30.3288,-87.8293,1.376,23.16,1111122 
DISL,ioos:station:DISL:BSCA:1,2011-01-03T12:00:00Z,30.3288,-87.8293,1.348,23.15,1111122 
DISL,ioos:station:DISL:BSCA:1,2011-01-03T12:30:00Z,30.3288,-87.8293,1.335,23.14,1111122 
DISL,ioos:station:DISL:BSCA:1,2011-01-03T13:00:00Z,30.3288,-87.8293,1.318,23.12,1111122 
DISL,ioos:station:DISL:BSCA:1,2011-01-03T13:30:00Z,30.3288,-87.8293,1.292,23.07,1111122 
DISL,ioos:station:DISL:BSCA:1,2011-01-03T14:00:00Z,30.3288,-87.8293,1.274,23.04,1111122 
DISL,ioos:station:DISL:BSCA:1,2011-01-03T14:30:00Z,30.3288,-87.8293,1.253,23.03,1111122 
DISL,ioos:station:DISL:BSCA:1,2011-01-03T15:00:00Z,30.3288,-87.8293,1.251,23.01,1111122 
DISL,ioos:station:DISL:BSCA:1,2011-01-03T15:30:00Z,30.3288,-87.8293,1.246,23.03,1111122 
DISL,ioos:station:DISL:BSCA:1,2011-01-03T16:00:00Z,30.3288,-87.8293,1.278,23.02,1111122 
DISL,ioos:station:DISL:BSCA:1,2011-01-03T16:30:00Z,30.3288,-87.8293,1.301,23.01,1111122 
DISL,ioos:station:DISL:BSCA:1,2011-01-03T17:00:00Z,30.3288,-87.8293,1.329,22.94,1111122 
DISL,ioos:station:DISL:BSCA:1,2011-01-03T17:30:00Z,30.3288,-87.8293,1.349,22.93,1111122 
DISL,ioos:station:DISL:BSCA:1,2011-01-03T18:00:00Z,30.3288,-87.8293,1.374,22.9,1111122 
DISL,ioos:station:DISL:BSCA:1,2011-01-03T18:30:00Z,30.3288,-87.8293,1.399,22.87,1111122 
DISL,ioos:station:DISL:BSCA:1,2011-01-03T19:00:00Z,30.3288,-87.8293,1.432,22.86,1111122 
DISL,ioos:station:DISL:BSCA:1,2011-01-03T19:30:00Z,30.3288,-87.8293,1.464,22.83,1111122 
DISL,ioos:station:DISL:BSCA:1,2011-01-03T20:00:00Z,30.3288,-87.8293,1.503,22.86,1111122 
DISL,ioos:station:DISL:BSCA:1,2011-01-03T20:30:00Z,30.3288,-87.8293,1.539,22.86,1111122 
DISL,ioos:station:DISL:BSCA:1,2011-01-03T21:00:00Z,30.3288,-87.8293,1.569,22.95,1111122 
DISL,ioos:station:DISL:BSCA:1,2011-01-03T21:30:00Z,30.3288,-87.8293,1.594,22.99,1111122 
DISL,ioos:station:DISL:BSCA:1,2011-01-03T22:00:00Z,30.3288,-87.8293,1.625,23.01,1111122 
DISL,ioos:station:DISL:BSCA:1,2011-01-03T22:30:00Z,30.3288,-87.8293,1.654,23.03,1111122 
DISL,ioos:station:DISL:BSCA:1,2011-01-03T23:00:00Z,30.3288,-87.8293,1.696,23.05,1111122 
DISL,ioos:station:DISL:BSCA:1,2011-01-03T23:30:00Z,30.3288,-87.8293,1.731,23.04,1111122 
DISL,ioos:station:DISL:BSCA:1,2011-01-04T00:00:00Z,30.3288,-87.8293,1.779,23.1,1111122 
DISL,ioos:station:DISL:BSCA:1,2011-01-04T00:30:00Z,30.3288,-87.8293,1.797,23.1,1111122 
DISL,ioos:station:DISL:BSCA:1,2011-01-04T01:00:00Z,30.3288,-87.8293,1.86,23.19,1111122 
DISL,ioos:station:DISL:BSCA:1,2011-01-04T01:30:00Z,30.3288,-87.8293,1.899,23.24,1111122 
DISL,ioos:station:DISL:BSCA:1,2011-01-04T02:00:00Z,30.3288,-87.8293,1.927,23.3,1111122 
DISL,ioos:station:DISL:BSCA:1,2011-01-04T02:30:00Z,30.3288,-87.8293,1.956,23.34,1111122 
DISL,ioos:station:DISL:BSCA:1,2011-01-04T03:00:00Z,30.3288,-87.8293,1.977,23.36,1111122 
DISL,ioos:station:DISL:BSCA:1,2011-01-04T03:30:00Z,30.3288,-87.8293,1.997,23.38,1111122 
DISL,ioos:station:DISL:BSCA:1,2011-01-04T04:00:00Z,30.3288,-87.8293,2.012,23.39,1111122 
DISL,ioos:station:DISL:BSCA:1,2011-01-04T04:30:00Z,30.3288,-87.8293,2.018,23.39,1111122 
DISL,ioos:station:DISL:BSCA:1,2011-01-04T05:00:00Z,30.3288,-87.8293,2.006,23.45,1111122 
DISL,ioos:station:DISL:BSCA:1,2011-01-04T05:30:00Z,30.3288,-87.8293,1.987,23.53,1111122 
DISL,ioos:station:DISL:BSCA:1,2011-01-04T06:00:00Z,30.3288,-87.8293,1.957,23.55,1111122 
DISL,ioos:station:DISL:BSCA:1,2011-01-04T06:30:00Z,30.3288,-87.8293,1.92,23.56,1111122 
DISL,ioos:station:DISL:BSCA:1,2011-01-04T07:00:00Z,30.3288,-87.8293,1.883,23.54,1111122 
DISL,ioos:station:DISL:BSCA:1,2011-01-04T07:30:00Z,30.3288,-87.8293,1.851,23.53,1111122 
DISL,ioos:station:DISL:BSCA:1,2011-01-04T08:00:00Z,30.3288,-87.8293,1.811,23.52,1111122 
DISL,ioos:station:DISL:BSCA:1,2011-01-04T08:30:00Z,30.3288,-87.8293,1.787,23.5,1111122 
DISL,ioos:station:DISL:BSCA:1,2011-01-04T09:00:00Z,30.3288,-87.8293,1.746,23.49,1111122 
DISL,ioos:station:DISL:BSCA:1,2011-01-04T09:30:00Z,30.3288,-87.8293,1.711,23.48,1111122 
DISL,ioos:station:DISL:BSCA:1,2011-01-04T10:00:00Z,30.3288,-87.8293,1.661,23.49,1111122 
DISL,ioos:station:DISL:BSCA:1,2011-01-04T10:30:00Z,30.3288,-87.8293,1.612,23.52,1111122 
DISL,ioos:station:DISL:BSCA:1,2011-01-04T11:00:00Z,30.3288,-87.8293,1.574,23.53,1111122 
DISL,ioos:station:DISL:BSCA:1,2011-01-04T11:30:00Z,30.3288,-87.8293,1.527,23.51,1111122 
DISL,ioos:station:DISL:BSCA:1,2011-01-04T12:00:00Z,30.3288,-87.8293,1.487,23.53,1111122 
DISL,ioos:station:DISL:BSCA:1,2011-01-04T12:30:00Z,30.3288,-87.8293,1.46,23.59,1111122 
DISL,ioos:station:DISL:BSCA:1,2011-01-04T13:00:00Z,30.3288,-87.8293,1.437,23.56,1111122 
DISL,ioos:station:DISL:BSCA:1,2011-01-04T13:30:00Z,30.3288,-87.8293,1.415,23.49,1111122 
DISL,ioos:station:DISL:BSCA:1,2011-01-04T14:00:00Z,30.3288,-87.8293,1.411,23.43,1111122 
DISL,ioos:station:DISL:BSCA:1,2011-01-04T14:30:00Z,30.3288,-87.8293,1.396,23.39,1111122 
DISL,ioos:station:DISL:BSCA:1,2011-01-04T15:00:00Z,30.3288,-87.8293,1.386,23.36,1111122 
DISL,ioos:station:DISL:BSCA:1,2011-01-04T15:30:00Z,30.3288,-87.8293,1.382,23.33,1111122 
DISL,ioos:station:DISL:BSCA:1,2011-01-04T16:00:00Z,30.3288,-87.8293,1.379,23.31,1111122 
DISL,ioos:station:DISL:BSCA:1,2011-01-04T16:30:00Z,30.3288,-87.8293,1.377,23.26,1111122 
DISL,ioos:station:DISL:BSCA:1,2011-01-04T17:00:00Z,30.3288,-87.8293,1.379,23.24,1111122 
DISL,ioos:station:DISL:BSCA:1,2011-01-04T17:30:00Z,30.3288,-87.8293,1.383,23.23,1111122 
DISL,ioos:station:DISL:BSCA:1,2011-01-04T18:00:00Z,30.3288,-87.8293,1.397,23.19,1111122 
DISL,ioos:station:DISL:BSCA:1,2011-01-04T18:30:00Z,30.3288,-87.8293,1.415,23.17,1111122 
DISL,ioos:station:DISL:BSCA:1,2011-01-04T19:00:00Z,30.3288,-87.8293,1.442,23.16,1111122 
DISL,ioos:station:DISL:BSCA:1,2011-01-04T19:30:00Z,30.3288,-87.8293,1.469,23.14,1111122 
DISL,ioos:station:DISL:BSCA:1,2011-01-04T20:00:00Z,30.3288,-87.8293,1.498,23.15,1111122 
DISL,ioos:station:DISL:BSCA:1,2011-01-04T20:30:00Z,30.3288,-87.8293,1.522,23.17,1111122 
DISL,ioos:station:DISL:BSCA:1,2011-01-04T21:00:00Z,30.3288,-87.8293,1.544,23.21,1111122 
DISL,ioos:station:DISL:BSCA:1,2011-01-04T21:30:00Z,30.3288,-87.8293,1.566,23.2,1111122 
DISL,ioos:station:DISL:BSCA:1,2011-01-04T22:00:00Z,30.3288,-87.8293,1.582,23.15,1111122 
DISL,ioos:station:DISL:BSCA:1,2011-01-04T22:30:00Z,30.3288,-87.8293,1.612,23.12,1111122 
DISL,ioos:station:DISL:BSCA:1,2011-01-04T23:00:00Z,30.3288,-87.8293,1.647,23.17,1111122 
DISL,ioos:station:DISL:BSCA:1,2011-01-04T23:30:00Z,30.3288,-87.8293,1.684,23.33,1111122 
DISL,ioos:station:DISL:BSCA:1,2011-01-05T00:00:00Z,30.3288,-87.8293,1.716,23.48,1111122 
DISL,ioos:station:DISL:BSCA:1,2011-01-05T00:30:00Z,30.3288,-87.8293,1.753,23.49,1111122 
DISL,ioos:station:DISL:BSCA:1,2011-01-05T01:00:00Z,30.3288,-87.8293,1.791,23.49,1111122 
DISL,ioos:station:DISL:BSCA:1,2011-01-05T01:30:00Z,30.3288,-87.8293,1.823,23.45,1111122 
DISL,ioos:station:DISL:BSCA:1,2011-01-05T02:00:00Z,30.3288,-87.8293,1.864,23.48,1111122 
DISL,ioos:station:DISL:BSCA:1,2011-01-05T02:30:00Z,30.3288,-87.8293,1.888,23.46,1111122 
DISL,ioos:station:DISL:BSCA:1,2011-01-05T03:00:00Z,30.3288,-87.8293,1.919,23.4,1111122 
DISL,ioos:station:DISL:BSCA:1,2011-01-05T03:30:00Z,30.3288,-87.8293,1.932,23.35,1111122 
DISL,ioos:station:DISL:BSCA:1,2011-01-05T04:00:00Z,30.3288,-87.8293,1.951,23.29,1111122 
DISL,ioos:station:DISL:BSCA:1,2011-01-05T04:30:00Z,30.3288,-87.8293,1.953,23.26,1111122 
DISL,ioos:station:DISL:BSCA:1,2011-01-05T05:00:00Z,30.3288,-87.8293,1.946,23.29,1111122 
DISL,ioos:station:DISL:BSCA:1,2011-01-05T05:30:00Z,30.3288,-87.8293,1.932,23.35,1111122 
DISL,ioos:station:DISL:BSCA:1,2011-01-05T06:00:00Z,30.3288,-87.8293,1.903,23.35,1111122 
DISL,ioos:station:DISL:BSCA:1,2011-01-05T06:30:00Z,30.3288,-87.8293,1.855,23.34,1111122 
DISL,ioos:station:DISL:BSCA:1,2011-01-05T07:00:00Z,30.3288,-87.8293,1.833,23.31,1111122 
DISL,ioos:station:DISL:BSCA:1,2011-01-05T07:30:00Z,30.3288,-87.8293,1.796,23.11,1111122 
DISL,ioos:station:DISL:BSCA:1,2011-01-05T08:00:00Z,30.3288,-87.8293,1.763,23.06,1111122 
DISL,ioos:station:DISL:BSCA:1,2011-01-05T08:30:00Z,30.3288,-87.8293,1.742,23.06,1111122 
DISL,ioos:station:DISL:BSCA:1,2011-01-05T09:00:00Z,30.3288,-87.8293,1.705,23.02,1111122 
DISL,ioos:station:DISL:BSCA:1,2011-01-05T09:30:00Z,30.3288,-87.8293,1.656,23.28,1111122 
DISL,ioos:station:DISL:BSCA:1,2011-01-05T10:00:00Z,30.3288,-87.8293,1.607,23.17,1111122 
DISL,ioos:station:DISL:BSCA:1,2011-01-05T10:30:00Z,30.3288,-87.8293,1.561,23.08,1111122 
DISL,ioos:station:DISL:BSCA:1,2011-01-05T11:00:00Z,30.3288,-87.8293,1.532,22.98,1111122 
DISL,ioos:station:DISL:BSCA:1,2011-01-05T11:30:00Z,30.3288,-87.8293,1.499,22.95,1111122 
DISL,ioos:station:DISL:BSCA:1,2011-01-05T12:00:00Z,30.3288,-87.8293,1.472,22.92,1111122 
DISL,ioos:station:DISL:BSCA:1,2011-01-05T12:30:00Z,30.3288,-87.8293,1.44,22.9,1111122 
DISL,ioos:station:DISL:BSCA:1,2011-01-05T13:00:00Z,30.3288,-87.8293,1.425,22.99,1111122 
DISL,ioos:station:DISL:BSCA:1,2011-01-05T13:30:00Z,30.3288,-87.8293,1.391,23.0,1111122 
DISL,ioos:station:DISL:BSCA:1,2011-01-05T14:00:00Z,30.3288,-87.8293,1.383,23.07,1111122 
DISL,ioos:station:DISL:BSCA:1,2011-01-05T14:30:00Z,30.3288,-87.8293,1.417,23.3,1111122 
DISL,ioos:station:DISL:BSCA:1,2011-01-05T15:00:00Z,30.3288,-87.8293,1.466,22.74,1111122 
DISL,ioos:station:DISL:BSCA:1,2011-01-05T15:30:00Z,30.3288,-87.8293,1.532,22.94,1111122 
DISL,ioos:station:DISL:BSCA:1,2011-01-05T16:00:00Z,30.3288,-87.8293,1.449,22.95,1111122 
DISL,ioos:station:DISL:BSCA:1,2011-01-05T16:30:00Z,30.3288,-87.8293,1.385,23.08,1111122 
DISL,ioos:station:DISL:BSCA:1,2011-01-05T17:00:00Z,30.3288,-87.8293,1.337,22.91,1111122 
DISL,ioos:station:DISL:BSCA:1,2011-01-05T17:30:00Z,30.3288,-87.8293,1.323,22.96,1111122 
DISL,ioos:station:DISL:BSCA:1,2011-01-05T18:00:00Z,30.3288,-87.8293,1.331,22.71,1111122 
DISL,ioos:station:DISL:BSCA:1,2011-01-05T18:30:00Z,30.3288,-87.8293,1.355,22.78,1111122 
DISL,ioos:station:DISL:BSCA:1,2011-01-05T19:00:00Z,30.3288,-87.8293,1.392,23.03,1111122 
DISL,ioos:station:DISL:BSCA:1,2011-01-05T19:30:00Z,30.3288,-87.8293,1.428,22.95,1111122 
DISL,ioos:station:DISL:BSCA:1,2011-01-05T20:00:00Z,30.3288,-87.8293,1.466,22.93,1111122 
DISL,ioos:station:DISL:BSCA:1,2011-01-05T20:30:00Z,30.3288,-87.8293,1.497,23.02,1111122 
DISL,ioos:station:DISL:BSCA:1,2011-01-05T21:00:00Z,30.3288,-87.8293,1.543,23.05,1111122 
DISL,ioos:station:DISL:BSCA:1,2011-01-05T21:30:00Z,30.3288,-87.8293,1.572,23.0,1111122 
DISL,ioos:station:DISL:BSCA:1,2011-01-05T22:00:00Z,30.3288,-87.8293,1.588,22.97,1111122 
DISL,ioos:station:DISL:BSCA:1,2011-01-05T22:30:00Z,30.3288,-87.8293,1.616,22.76,1111122 
DISL,ioos:station:DISL:BSCA:1,2011-01-05T23:00:00Z,30.3288,-87.8293,1.62,22.74,1111122 
DISL,ioos:station:DISL:BSCA:1,2011-01-05T23:30:00Z,30.3288,-87.8293,1.647,22.71,1111122 
DISL,ioos:station:DISL:BSCA:1,2011-01-06T00:00:00Z,30.3288,-87.8293,1.674,22.65,1111122 
DISL,ioos:station:DISL:BSCA:1,2011-01-06T00:30:00Z,30.3288,-87.8293,1.712,22.59,1111122 
DISL,ioos:station:DISL:BSCA:1,2011-01-06T01:00:00Z,30.3288,-87.8293,1.771,22.53,1111122 
DISL,ioos:station:DISL:BSCA:1,2011-01-06T01:30:00Z,30.3288,-87.8293,1.794,22.65,1111122 
DISL,ioos:station:DISL:BSCA:1,2011-01-06T02:00:00Z,30.3288,-87.8293,1.851,22.54,1111122 
DISL,ioos:station:DISL:BSCA:1,2011-01-06T02:30:00Z,30.3288,-87.8293,1.878,22.55,1111122 
DISL,ioos:station:DISL:BSCA:1,2011-01-06T03:00:00Z,30.3288,-87.8293,1.91,22.53,1111122 
DISL,ioos:station:DISL:BSCA:1,2011-01-06T03:30:00Z,30.3288,-87.8293,1.922,22.67,1111122 
DISL,ioos:station:DISL:BSCA:1,2011-01-06T04:00:00Z,30.3288,-87.8293,1.94,22.7,1111122 
DISL,ioos:station:DISL:BSCA:1,2011-01-06T04:30:00Z,30.3288,-87.8293,1.938,22.75,1111122 
DISL,ioos:station:DISL:BSCA:1,2011-01-06T05:00:00Z,30.3288,-87.8293,1.937,22.77,1111122 
DISL,ioos:station:DISL:BSCA:1,2011-01-06T05:30:00Z,30.3288,-87.8293,1.928,22.82,1111122 
DISL,ioos:station:DISL:BSCA:1,2011-01-06T06:00:00Z,30.3288,-87.8293,1.901,22.85,1111122 
DISL,ioos:station:DISL:BSCA:1,2011-01-06T06:30:00Z,30.3288,-87.8293,1.896,22.84,1111122 
DISL,ioos:station:DISL:BSCA:1,2011-01-06T07:00:00Z,30.3288,-87.8293,1.862,22.82,1111122 
DISL,ioos:station:DISL:BSCA:1,2011-01-06T07:30:00Z,30.3288,-87.8293,1.844,22.81,1111122 
DISL,ioos:station:DISL:BSCA:1,2011-01-06T08:00:00Z,30.3288,-87.8293,1.86,22.82,1111122 
DISL,ioos:station:DISL:BSCA:1,2011-01-06T08:30:00Z,30.3288,-87.8293,1.827,22.8,1111122 
DISL,ioos:station:DISL:BSCA:1,2011-01-06T09:00:00Z,30.3288,-87.8293,1.807,22.78,1111122 
DISL,ioos:station:DISL:BSCA:1,2011-01-06T09:30:00Z,30.3288,-87.8293,1.733,22.65,1111122 
DISL,ioos:station:DISL:BSCA:1,2011-01-06T10:00:00Z,30.3288,-87.8293,1.69,22.63,1111122 
DISL,ioos:station:DISL:BSCA:1,2011-01-06T10:30:00Z,30.3288,-87.8293,1.643,22.56,1111122 
DISL,ioos:station:DISL:BSCA:1,2011-01-06T11:00:00Z,30.3288,-87.8293,1.6,22.5,1111122 
DISL,ioos:station:DISL:BSCA:1,2011-01-06T11:30:00Z,30.3288,-87.8293,1.565,22.47,1111122 
DISL,ioos:station:DISL:BSCA:1,2011-01-06T12:00:00Z,30.3288,-87.8293,1.528,22.4,1111122 
DISL,ioos:station:DISL:BSCA:1,2011-01-06T12:30:00Z,30.3288,-87.8293,1.496,22.31,1111122 
DISL,ioos:station:DISL:BSCA:1,2011-01-06T13:00:00Z,30.3288,-87.8293,1.469,22.29,1111122 
DISL,ioos:station:DISL:BSCA:1,2011-01-06T13:30:00Z,30.3288,-87.8293,1.445,22.27,1111122 
DISL,ioos:station:DISL:BSCA:1,2011-01-06T14:00:00Z,30.3288,-87.8293,1.436,22.14,1111122 